Flag for Turkey Weather past 2 weeks in Mersin, Turkey

Now
61 °F

Passing clouds.


Feels Like: 61 °F
Forecast: 47 / 59 °F
Wind: 9 mph from Northeast

Location: Adana / Sakirpasa

Current Time: Mar 1, 2015 at 10:38:48 AM

Latest Report: Mar 1, 2015 at 9:50 AM


Visibility: N/A

Pressure: 30.01 "Hg

Humidity: 68%

Dew point: 50 °F

Location of MersinLocation

Historic Weather in Mersin — Graph

°F

Mersin temperature yesterday

Maximum temperature yesterday: 68 °F (at 10:20 AM)
Minimum temperature yesterday: 52 °F (at 11:20 PM)
Average temperature yesterday: 62 °F

Past Weeks' High & Low Weather Summary

 TemperatureHumidityPressure
High73 °F (Feb 27, 1:50 PM)94% (Mar 1, 3:20 AM)30.27 "Hg (Mar 1, 3:20 AM)
Low37 °F (Feb 22, 3:20 AM)17% (Feb 21, 1:20 PM)29.59 "Hg (Feb 20, 11:50 AM)
Average52 °F62%29.98 "Hg
* Reported Feb 14 9:20 AM — Mar 1 9:20 AM, Mersin, Weather by CustomWeather, © 2015

Note: Actual official high and low records may vary slightly from our data, if they occured in-between our weather recording intervals... More about our weather records

Advertising

Mersin weather history for previous 24 hours

 ConditionsComfort  
Time TempWeatherWind HumidityBarometerVisibility
9:20 AM
Sun, Mar 1
61 °FPassing clouds.8 mph68%30.01 "HgN/A
8:50 AM59 °FPassing clouds.8 mph72%30.01 "HgN/A
8:20 AM57 °FPassing clouds.8 mph77%30.01 "HgN/A
7:50 AM57 °FFog.7 mph77%30.01 "Hg3 mi
7:20 AM54 °FFog.8 mph88%30.01 "Hg3 mi
6:50 AM52 °FFog.8 mph88%29.98 "Hg3 mi
6:20 AM50 °FFog.7 mph88%29.98 "Hg3 mi
5:50 AM50 °FFog.7 mph88%29.98 "Hg3 mi
5:20 AM50 °FFog.10 mph88%29.98 "Hg3 mi
4:50 AM50 °FFog.9 mph88%29.98 "Hg3 mi
4:20 AM50 °FFog.9 mph88%29.98 "Hg3 mi
3:50 AM50 °FFog.9 mph88%29.95 "Hg3 mi
3:20 AM48 °FFog.8 mph94%29.95 "Hg3 mi
2:50 AM50 °FFog.8 mph88%29.95 "Hg3 mi
2:20 AM52 °FFog.7 mph88%29.95 "Hg3 mi
1:50 AM50 °FFog.7 mph88%29.98 "Hg3 mi
1:20 AM52 °FFog.7 mph88%29.98 "Hg3 mi
12:50 AM52 °FFog.No wind88%29.98 "Hg3 mi
12:20 AM54 °FFog.No wind88%29.98 "Hg3 mi
11:50 PM
Sat, Feb 28
52 °FFog.No wind88%29.98 "Hg3 mi
11:20 PM52 °FFog.1 mph88%29.98 "Hg3 mi
10:50 PM54 °FFog.6 mph88%29.98 "Hg3 mi
10:20 PM55 °FFog.7 mph77%29.98 "Hg3 mi
9:50 PM57 °FFog.13 mph77%29.98 "Hg3 mi
9:20 PM57 °FFog.8 mph77%29.98 "Hg3 mi
8:50 PM57 °FFog.8 mph82%29.98 "Hg3 mi
8:20 PM57 °FFog.7 mph82%29.98 "Hg3 mi
7:50 PM57 °FFog.6 mph82%29.98 "Hg3 mi
7:20 PM57 °FPartly cloudy.6 mph82%29.98 "HgN/A
6:50 PM59 °FPartly cloudy.5 mph72%29.98 "HgN/A
6:20 PM61 °FPartly cloudy.5 mph72%29.95 "HgN/A
5:50 PM61 °FPartly cloudy.7 mph68%29.95 "HgN/A
5:20 PM63 °FBroken clouds.7 mph64%29.95 "HgN/A
4:50 PM63 °FBroken clouds.13 mph64%29.95 "HgN/A
4:20 PM64 °FBroken clouds.15 mph64%29.92 "HgN/A
3:50 PM66 °FBroken clouds.16 mph52%29.95 "HgN/A
3:20 PM68 °FBroken clouds.15 mph53%29.92 "HgN/A
2:50 PM68 °FBroken clouds.18 mph53%29.92 "HgN/A
2:20 PM68 °FBroken clouds.20 mph53%29.89 "HgN/A
1:50 PM68 °FBroken clouds.17 mph64%29.89 "HgN/A
1:20 PM68 °FBroken clouds.14 mph60%29.89 "HgN/A
12:50 PM68 °FBroken clouds.14 mph56%29.89 "HgN/A
12:20 PM68 °FBroken clouds.9 mph56%29.92 "HgN/A
11:50 AM68 °FBroken clouds.10 mph56%29.92 "HgN/A
11:20 AM66 °FBroken clouds.8 mph56%29.95 "HgN/A
10:50 AM68 °FScattered clouds.9 mph49%29.95 "HgN/A
10:20 AM68 °FBroken clouds.3 mph40%29.95 "HgN/A
Weather by CustomWeather, © 2015

See weather overviewHow to use our weather pages